Wetterdaten: Sonntag, 09.11.2008
Datum Zeit Temp. a Sch. Temp. a Son. Temp. a Bod. Feuchte a. Luftdruck Regen Wind Richtung Richtung Sonnenschein Helligkeit Taupunkt Windchill
09.11.2008 00:01 0,8 C 1,6 C 1,6 C 94 % 1020 hPa 0,0 l/m 0,0 m/s (0 Bft) S-SO 160 0 min 0 lux -0,1 C 0,8 C
09.11.2008 00:06 0,8 C 1,5 C 1,3 C 94 % 1020 hPa 0,0 l/m 0,0 m/s (0 Bft) S-SO 160 0 min 0 lux -0,1 C 0,8 C
09.11.2008 00:10 1,0 C 1,5 C 1,6 C 94 % 1020 hPa 0,0 l/m 0,0 m/s (0 Bft) S-SO 160 0 min 0 lux 0,1 C 1,0 C
09.11.2008 00:15 0,9 C 1,4 C 1,4 C 94 % 1020 hPa 0,0 l/m 0,0 m/s (0 Bft) S-SO 160 0 min 0 lux 0,0 C 0,9 C
09.11.2008 00:20 0,9 C 1,4 C 1,4 C 94 % 1020 hPa 0,0 l/m 0,0 m/s (0 Bft) S-SO 160 0 min 0 lux 0,0 C 0,9 C
09.11.2008 00:25 0,9 C 1,4 C 1,4 C 94 % 1020 hPa 0,0 l/m 0,0 m/s (0 Bft) S-SO 160 0 min 0 lux 0,0 C 0,9 C
09.11.2008 00:30 0,9 C 1,4 C 1,5 C 94 % 1020 hPa 0,0 l/m 0,0 m/s (0 Bft) S-SO 160 0 min 0 lux 0,0 C 0,9 C
09.11.2008 00:35 0,9 C 1,4 C 1,3 C 94 % 1020 hPa 0,0 l/m 0,0 m/s (0 Bft) S-SO 160 0 min 0 lux 0,0 C 0,9 C
09.11.2008 00:40 0,9 C 1,4 C 1,3 C 94 % 1020 hPa 0,0 l/m 0,0 m/s (0 Bft) S-SO 160 0 min 0 lux 0,0 C 0,9 C
09.11.2008 00:45 0,9 C 1,4 C 1,3 C 94 % 1020 hPa 0,0 l/m 0,0 m/s (0 Bft) S-SO 160 0 min 0 lux 0,0 C 0,9 C
09.11.2008 00:50 0,9 C 1,3 C 1,4 C 94 % 1020 hPa 0,0 l/m 0,0 m/s (0 Bft) S-SO 160 0 min 0 lux 0,0 C 0,9 C
09.11.2008 00:55 0,9 C 1,3 C 1,2 C 94 % 1020 hPa 0,0 l/m 0,0 m/s (0 Bft) S-SO 160 0 min 0 lux 0,0 C 0,9 C
09.11.2008 01:00 0,9 C 1,3 C 1,2 C 94 % 1020 hPa 0,0 l/m 0,0 m/s (0 Bft) S-SO 160 0 min 0 lux 0,0 C 0,9 C
09.11.2008 01:05 0,9 C 1,2 C 1,2 C 94 % 1020 hPa 0,0 l/m 0,0 m/s (0 Bft) S-SO 160 0 min 0 lux 0,0 C 0,9 C
09.11.2008 01:10 0,9 C 1,2 C 1,2 C 94 % 1020 hPa 0,0 l/m 0,0 m/s (0 Bft) S-SO 160 0 min 0 lux 0,0 C 0,9 C
09.11.2008 01:15 0,9 C 1,2 C 1,2 C 94 % 1020 hPa 0,0 l/m 0,0 m/s (0 Bft) S-SO 160 0 min 0 lux 0,0 C 0,9 C
09.11.2008 01:20 0,9 C 1,1 C 1,2 C 94 % 1020 hPa 0,0 l/m 0,0 m/s (0 Bft) S-SO 160 0 min 0 lux 0,0 C 0,9 C
09.11.2008 01:25 0,9 C 1,0 C 0,9 C 94 % 1020 hPa 0,0 l/m 0,0 m/s (0 Bft) S-SO 160 0 min 0 lux 0,0 C 0,9 C
09.11.2008 01:30 0,9 C 1,0 C 0,9 C 94 % 1020 hPa 0,0 l/m 0,0 m/s (0 Bft) S-SO 160 0 min 0 lux 0,0 C 0,9 C
09.11.2008 01:35 0,9 C 0,9 C 0,9 C 94 % 1020 hPa 0,0 l/m 0,0 m/s (0 Bft) S-SO 160 0 min 0 lux 0,0 C 0,9 C
09.11.2008 01:40 0,9 C 0,9 C 0,9 C 94 % 1020 hPa 0,0 l/m 0,0 m/s (0 Bft) S-SO 160 0 min 0 lux 0,0 C 0,9 C
09.11.2008 01:45 0,9 C 0,9 C 0,9 C 94 % 1020 hPa 0,0 l/m 0,0 m/s (0 Bft) S-SO 160 0 min 0 lux 0,0 C 0,9 C
09.11.2008 01:50 0,4 C 0,9 C 1,0 C 95 % 1020 hPa 0,0 l/m 0,0 m/s (0 Bft) S-SO 160 0 min 0 lux -0,3 C 0,4 C
09.11.2008 01:55 0,4 C 0,8 C 1,0 C 95 % 1020 hPa 0,0 l/m 0,0 m/s (0 Bft) S-SO 160 0 min 0 lux -0,3 C 0,4 C
09.11.2008 02:00 0,4 C 0,8 C 0,9 C 95 % 1020 hPa 0,0 l/m 0,0 m/s (0 Bft) S-SO 160 0 min 0 lux -0,3 C 0,4 C
09.11.2008 02:05 0,4 C 0,8 C 0,9 C 95 % 1020 hPa 0,0 l/m 0,0 m/s (0 Bft) S-SO 160 0 min 0 lux -0,3 C 0,4 C
09.11.2008 02:10 0,4 C 0,8 C 1,0 C 95 % 1020 hPa 0,0 l/m 0,0 m/s (0 Bft) S-SO 160 0 min 0 lux -0,3 C 0,4 C
09.11.2008 02:15 0,3 C 0,8 C 1,0 C 95 % 1020 hPa 0,0 l/m 0,0 m/s (0 Bft) S-SO 160 0 min 0 lux -0,4 C 0,3 C
09.11.2008 02:20 0,3 C 0,8 C 0,9 C 95 % 1019 hPa 0,0 l/m 1,1 m/s (1 Bft) S-SO 160 0 min 0 lux -0,4 C 0,3 C
09.11.2008 02:25 0,3 C 0,8 C 0,8 C 95 % 1019 hPa 0,0 l/m 1,0 m/s (1 Bft) S-SO 160 0 min 0 lux -0,4 C 0,3 C
09.11.2008 02:30 0,3 C 0,8 C 0,7 C 95 % 1019 hPa 0,0 l/m 0,0 m/s (0 Bft) S-SO 160 0 min 0 lux -0,4 C 0,3 C
09.11.2008 02:35 0,3 C 0,7 C 0,8 C 95 % 1019 hPa 0,0 l/m 0,0 m/s (0 Bft) S-SO 160 0 min 0 lux -0,4 C 0,3 C
09.11.2008 02:40 0,3 C 0,8 C 0,7 C 95 % 1019 hPa 0,0 l/m 0,2 m/s (0 Bft) S-SO 160 0 min 0 lux -0,4 C 0,3 C
09.11.2008 02:45 0,3 C 0,8 C 0,8 C 95 % 1019 hPa 0,0 l/m 0,0 m/s (0 Bft) S-SO 160 0 min 0 lux -0,4 C 0,3 C
09.11.2008 02:50 0,3 C 0,8 C 0,6 C 95 % 1019 hPa 0,0 l/m 0,0 m/s (0 Bft) S-SO 160 0 min 0 lux -0,4 C 0,3 C
09.11.2008 02:55 0,3 C 0,7 C 0,8 C 95 % 1019 hPa 0,0 l/m 0,0 m/s (0 Bft) S-SO 160 0 min 0 lux -0,4 C 0,3 C
09.11.2008 03:00 0,3 C 0,7 C 0,5 C 95 % 1019 hPa 0,0 l/m 0,0 m/s (0 Bft) S-SO 160 0 min 0 lux -0,4 C 0,3 C
09.11.2008 03:05 0,3 C 0,7 C 0,5 C 95 % 1019 hPa 0,0 l/m 0,0 m/s (0 Bft) S-SO 160 0 min 0 lux -0,4 C 0,3 C
09.11.2008 03:10 0,3 C 0,7 C 0,6 C 95 % 1019 hPa 0,0 l/m 0,0 m/s (0 Bft) S-SO 160 0 min 0 lux -0,4 C 0,3 C
09.11.2008 03:15 0,3 C 0,8 C 0,9 C 95 % 1019 hPa 0,0 l/m 0,0 m/s (0 Bft) S-SO 160 0 min 0 lux -0,4 C 0,3 C
09.11.2008 03:20 0,3 C 0,9 C 1,2 C 95 % 1019 hPa 0,0 l/m 0,0 m/s (0 Bft) S-SO 160 0 min 0 lux -0,4 C 0,3 C
09.11.2008 03:25 0,3 C 1,0 C 1,3 C 95 % 1018 hPa 0,0 l/m 0,0 m/s (0 Bft) S-SO 160 0 min 0 lux -0,4 C 0,3 C
09.11.2008 03:30 0,3 C 1,1 C 1,3 C 95 % 1018 hPa 0,0 l/m 0,1 m/s (0 Bft) S-SO 160 0 min 0 lux -0,4 C 0,3 C
09.11.2008 03:35 1,1 C 1,2 C 1,3 C 96 % 1018 hPa 0,0 l/m 0,1 m/s (0 Bft) S-SO 160 0 min 0 lux 0,5 C 1,1 C
09.11.2008 03:40 1,1 C 1,2 C 1,2 C 96 % 1018 hPa 0,0 l/m 0,0 m/s (0 Bft) S-SO 160 0 min 0 lux 0,5 C 1,1 C
09.11.2008 03:45 1,1 C 1,2 C 1,1 C 96 % 1018 hPa 0,0 l/m 1,1 m/s (1 Bft) S-SO 160 0 min 0 lux 0,5 C 1,1 C
09.11.2008 03:50 0,9 C 1,2 C 1,2 C 96 % 1018 hPa 0,0 l/m 1,1 m/s (1 Bft) S-SO 160 0 min 0 lux 0,3 C 0,9 C
09.11.2008 03:55 0,9 C 1,3 C 1,2 C 96 % 1018 hPa 0,0 l/m 0,0 m/s (0 Bft) W 280 0 min 0 lux 0,3 C 0,9 C
09.11.2008 04:00 0,9 C 1,3 C 1,3 C 96 % 1018 hPa 0,0 l/m 0,0 m/s (0 Bft) W 280 0 min 0 lux 0,3 C 0,9 C
09.11.2008 04:05 1,1 C 1,3 C 1,3 C 96 % 1018 hPa 0,0 l/m 0,0 m/s (0 Bft) W 280 0 min 0 lux 0,5 C 1,1 C
09.11.2008 04:10 1,1 C 1,4 C 1,4 C 96 % 1018 hPa 0,0 l/m 0,0 m/s (0 Bft) W 280 0 min 0 lux 0,5 C 1,1 C
09.11.2008 04:15 1,2 C 1,4 C 1,5 C 96 % 1018 hPa 0,0 l/m 0,0 m/s (0 Bft) W 280 0 min 0 lux 0,6 C 1,2 C
09.11.2008 04:20 1,2 C 1,5 C 1,5 C 96 % 1018 hPa 0,0 l/m 0,0 m/s (0 Bft) W22.5 265 0 min 0 lux 0,6 C 1,2 C
09.11.2008 04:25 1,3 C 1,5 C 1,6 C 96 % 1018 hPa 0,0 l/m 0,0 m/s (0 Bft) W-SW 245 0 min 0 lux 0,7 C 1,3 C
09.11.2008 04:30 1,3 C 1,6 C 1,5 C 96 % 1018 hPa 0,0 l/m 0,0 m/s (0 Bft) W-SW 245 0 min 0 lux 0,7 C 1,3 C
09.11.2008 04:35 1,3 C 1,6 C 1,6 C 96 % 1018 hPa 0,0 l/m 1,0 m/s (1 Bft) N-NW45 330 0 min 0 lux 0,7 C 1,3 C
09.11.2008 04:40 1,8 C 1,7 C 1,6 C 97 % 1018 hPa 0,0 l/m 0,1 m/s (0 Bft) W67.5 280 0 min 0 lux 1,4 C 1,8 C
09.11.2008 04:45 1,8 C 1,7 C 1,5 C 97 % 1018 hPa 0,0 l/m 0,0 m/s (0 Bft) SO 125 0 min 0 lux 1,4 C 1,8 C
09.11.2008 04:50 1,8 C 1,7 C 1,5 C 97 % 1018 hPa 0,0 l/m 0,0 m/s (0 Bft) SO 125 0 min 0 lux 1,4 C 1,8 C
09.11.2008 04:55 1,8 C 1,7 C 1,4 C 97 % 1018 hPa 0,0 l/m 0,1 m/s (0 Bft) SO 125 0 min 0 lux 1,4 C 1,8 C
09.11.2008 05:00 1,8 C 1,8 C 1,9 C 97 % 1017 hPa 0,0 l/m 1,6 m/s (2 Bft) O-SO 120 0 min 0 lux 1,4 C 1,8 C
09.11.2008 05:05 1,8 C 2,0 C 2,0 C 97 % 1017 hPa 0,0 l/m 1,9 m/s (2 Bft) O-SO 105 0 min 0 lux 1,4 C 1,4 C
09.11.2008 05:11 1,8 C 2,1 C 1,9 C 97 % 1017 hPa 0,0 l/m 0,0 m/s (0 Bft) O-SO 115 0 min 0 lux 1,4 C 1,8 C
09.11.2008 05:16 1,8 C 2,2 C 2,3 C 97 % 1017 hPa 0,0 l/m 1,3 m/s (1 Bft) O-SO 115 0 min 0 lux 1,4 C 1,8 C
09.11.2008 05:21 2,9 C 2,4 C 2,5 C 97 % 1017 hPa 0,0 l/m 1,6 m/s (2 Bft) O-SO22.5 110 0 min 0 lux 2,5 C 2,9 C
09.11.2008 05:26 3,1 C 2,7 C 2,6 C 98 % 1017 hPa 0,0 l/m 1,5 m/s (1 Bft) O 95 0 min 0 lux 2,8 C 3,1 C
09.11.2008 05:31 3,9 C 2,9 C 2,9 C 98 % 1017 hPa 0,0 l/m 1,8 m/s (2 Bft) O 95 0 min 0 lux 3,6 C 3,8 C
09.11.2008 05:36 3,9 C 3,1 C 2,8 C 98 % 1017 hPa 0,0 l/m 0,1 m/s (0 Bft) S45 185 0 min 0 lux 3,6 C 3,9 C
09.11.2008 05:41 3,7 C 3,2 C 2,8 C 97 % 1018 hPa 0,0 l/m 1,3 m/s (1 Bft) SO 140 0 min 0 lux 3,3 C 3,7 C
09.11.2008 05:46 3,7 C 3,3 C 2,8 C 97 % 1018 hPa 0,0 l/m 1,3 m/s (1 Bft) O22.5 100 0 min 0 lux 3,3 C 3,7 C
09.11.2008 05:51 3,7 C 3,4 C 3,0 C 97 % 1018 hPa 0,0 l/m 1,4 m/s (1 Bft) O-NO45 70 0 min 0 lux 3,3 C 3,7 C
09.11.2008 05:56 3,7 C 3,5 C 3,2 C 97 % 1018 hPa 0,0 l/m 1,5 m/s (1 Bft) O-NO22.5 75 0 min 0 lux 3,3 C 3,7 C
09.11.2008 06:01 3,7 C 3,7 C 3,1 C 97 % 1018 hPa 0,0 l/m 1,5 m/s (1 Bft) S-SO45 150 0 min 0 lux 3,3 C 3,7 C
09.11.2008 06:06 3,7 C 3,7 C 3,4 C 97 % 1018 hPa 0,0 l/m 0,4 m/s (1 Bft) S-SO67.5 150 0 min 0 lux 3,3 C 3,7 C
09.11.2008 06:11 3,7 C 4,0 C 3,4 C 97 % 1017 hPa 0,0 l/m 2,2 m/s (2 Bft) SO67.5 135 0 min 0 lux 3,3 C 2,2 C
09.11.2008 06:16 3,7 C 4,1 C 3,8 C 97 % 1017 hPa 0,0 l/m 2,1 m/s (2 Bft) SO22.5 125 0 min 0 lux 3,3 C 2,7 C
09.11.2008 06:21 3,7 C 4,1 C 3,9 C 97 % 1017 hPa 0,0 l/m 1,9 m/s (2 Bft) SO45 135 0 min 0 lux 3,3 C 3,4 C
09.11.2008 06:26 3,7 C 4,3 C 4,1 C 97 % 1017 hPa 0,0 l/m 1,6 m/s (2 Bft) SO22.5 125 0 min 0 lux 3,3 C 3,7 C
09.11.2008 06:31 3,7 C 4,5 C 4,2 C 97 % 1017 hPa 0,0 l/m 2,4 m/s (2 Bft) S-SO22.5 150 0 min 0 lux 3,3 C 1,7 C
09.11.2008 06:36 3,7 C 5,0 C 4,2 C 97 % 1017 hPa 0,0 l/m 3,8 m/s (3 Bft) SO22.5 145 0 min 0 lux 3,3 C -1,7 C
09.11.2008 06:40 3,7 C 5,1 C 4,5 C 97 % 1017 hPa 0,0 l/m 2,9 m/s (2 Bft) SO22.5 135 0 min 0 lux 3,3 C 0,3 C
09.11.2008 06:45 6,0 C 5,5 C 4,9 C 96 % 1017 hPa 0,0 l/m 3,6 m/s (3 Bft) SO22.5 145 0 min 0 lux 5,4 C 1,4 C
09.11.2008 06:50 6,3 C 5,7 C 4,6 C 96 % 1017 hPa 0,0 l/m 2,1 m/s (2 Bft) S45 175 0 min 0 lux 5,7 C 5,2 C
09.11.2008 06:55 6,3 C 5,9 C 4,8 C 96 % 1017 hPa 0,0 l/m 3,1 m/s (2 Bft) SW45 225 0 min 0 lux 5,7 C 2,7 C
09.11.2008 07:00 6,6 C 6,1 C 4,9 C 95 % 1017 hPa 0,0 l/m 0,0 m/s (0 Bft) SW22.5 220 0 min 0 lux 5,9 C 6,6 C
09.11.2008 07:05 6,7 C 6,4 C 5,0 C 95 % 1017 hPa 0,0 l/m 1,9 m/s (2 Bft) SW67.5 215 0 min 0 lux 6,0 C 6,4 C
09.11.2008 07:10 6,7 C 6,6 C 5,0 C 94 % 1017 hPa 0,0 l/m 0,4 m/s (1 Bft) S45 170 0 min 0 lux 5,8 C 6,7 C
09.11.2008 07:15 6,8 C 6,6 C 5,3 C 93 % 1017 hPa 0,0 l/m 5,2 m/s (3 Bft) S-SW67.5 200 0 min 0 lux 5,7 C -0,4 C
09.11.2008 07:20 7,2 C 6,8 C 5,4 C 92 % 1017 hPa 0,0 l/m 5,2 m/s (3 Bft) S-SW67.5 195 0 min 0 lux 6,0 C 0,2 C
09.11.2008 07:25 7,2 C 6,9 C 5,6 C 92 % 1017 hPa 0,0 l/m 1,4 m/s (1 Bft) W-SW22.5 240 0 min 52 lux 6,0 C 7,2 C
09.11.2008 07:30 7,4 C 7,1 C 5,7 C 91 % 1017 hPa 0,0 l/m 3,9 m/s (3 Bft) SO67.5 135 0 min 92 lux 6,0 C 2,4 C
09.11.2008 07:35 7,5 C 7,2 C 5,7 C 91 % 1017 hPa 0,0 l/m 2,8 m/s (2 Bft) S67.5 170 0 min 120 lux 6,1 C 4,9 C
09.11.2008 07:40 7,6 C 7,3 C 5,6 C 91 % 1017 hPa 0,0 l/m 1,6 m/s (1 Bft) W 270 0 min 240 lux 6,2 C 7,6 C
09.11.2008 07:45 7,6 C 7,4 C 5,8 C 90 % 1017 hPa 0,0 l/m 5,6 m/s (4 Bft) S67.5 175 0 min 339 lux 6,1 C 0,2 C
09.11.2008 07:50 8,0 C 7,6 C 6,1 C 89 % 1017 hPa 0,0 l/m 3,4 m/s (3 Bft) S-SW67.5 195 0 min 411 lux 6,3 C 4,0 C
09.11.2008 07:55 8,0 C 7,8 C 5,9 C 89 % 1017 hPa 0,0 l/m 2,9 m/s (2 Bft) SW45 235 0 min 446 lux 6,3 C 5,1 C
09.11.2008 08:00 8,0 C 7,9 C 6,1 C 89 % 1017 hPa 0,0 l/m 5,5 m/s (4 Bft) S-SW67.5 195 0 min 501 lux 6,3 C 0,7 C
09.11.2008 08:05 8,1 C 7,9 C 6,3 C 89 % 1017 hPa 0,4 l/m 5,6 m/s (4 Bft) S-SW67.5 205 0 min 534 lux 6,4 C 0,8 C
09.11.2008 08:10 8,1 C 7,9 C 6,2 C 90 % 1017 hPa 0,0 l/m 6,7 m/s (4 Bft) SW67.5 235 0 min 557 lux 6,6 C -0,5 C
09.11.2008 08:15 8,1 C 8,0 C 6,2 C 91 % 1017 hPa 0,0 l/m 4,4 m/s (3 Bft) S-SW67.5 210 0 min 850 lux 6,7 C 2,5 C
09.11.2008 08:20 8,1 C 7,9 C 6,2 C 91 % 1017 hPa 0,0 l/m 3,9 m/s (3 Bft) SW45 225 0 min 887 lux 6,7 C 3,3 C
09.11.2008 08:25 8,0 C 7,9 C 6,2 C 92 % 1017 hPa 0,0 l/m 4,3 m/s (3 Bft) W-SW45 240 0 min 1,24 klux 6,8 C 2,4 C
09.11.2008 08:30 8,0 C 7,9 C 6,3 C 92 % 1018 hPa 0,0 l/m 5,7 m/s (4 Bft) SW67.5 230 0 min 1,51 klux 6,8 C 0,6 C
09.11.2008 08:35 8,0 C 7,9 C 6,3 C 93 % 1018 hPa 0,0 l/m 3,3 m/s (2 Bft) S-SW67.5 195 0 min 2,22 klux 6,9 C 4,3 C
09.11.2008 08:40 7,9 C 7,8 C 6,3 C 93 % 1017 hPa 0,0 l/m 4,8 m/s (3 Bft) SW45 220 0 min 2,10 klux 6,8 C 1,7 C
09.11.2008 08:45 7,9 C 7,8 C 6,3 C 93 % 1018 hPa 0,4 l/m 5,8 m/s (4 Bft) SW67.5 225 0 min 1,90 klux 6,8 C 0,2 C
09.11.2008 08:50 7,9 C 7,8 C 6,4 C 93 % 1018 hPa 0,0 l/m 6,3 m/s (4 Bft) W-SW45 245 0 min 1,67 klux 6,8 C -0,4 C
09.11.2008 08:55 7,8 C 7,8 C 6,3 C 93 % 1018 hPa 0,0 l/m 4,8 m/s (3 Bft) SW67.5 225 0 min 1,33 klux 6,7 C 1,5 C
09.11.2008 09:00 7,8 C 7,8 C 6,4 C 93 % 1018 hPa 0,0 l/m 4,0 m/s (3 Bft) SW67.5 220 0 min 1,14 klux 6,7 C 2,7 C
09.11.2008 09:05 7,8 C 7,8 C 6,4 C 93 % 1018 hPa 0,0 l/m 3,6 m/s (3 Bft) S-SW45 195 0 min 1,35 klux 6,7 C 3,4 C
09.11.2008 09:11 7,7 C 7,8 C 6,4 C 93 % 1018 hPa 0,0 l/m 4,0 m/s (3 Bft) S45 185 0 min 2,05 klux 6,6 C 2,6 C
09.11.2008 09:16 7,8 C 7,8 C 6,4 C 93 % 1018 hPa 0,0 l/m 4,3 m/s (3 Bft) SW67.5 225 0 min 1,75 klux 6,7 C 2,3 C
09.11.2008 09:21 7,8 C 7,8 C 6,5 C 93 % 1018 hPa 0,0 l/m 5,6 m/s (4 Bft) S-SW67.5 195 0 min 1,91 klux 6,7 C 0,3 C
09.11.2008 09:25 7,8 C 7,9 C 6,6 C 93 % 1018 hPa 0,0 l/m 3,4 m/s (2 Bft) SW45 230 0 min 1,71 klux 6,7 C 3,9 C
09.11.2008 09:30 7,9 C 7,9 C 6,5 C 93 % 1018 hPa 0,0 l/m 3,4 m/s (2 Bft) SW45 235 0 min 2,12 klux 6,8 C 4,0 C
09.11.2008 09:35 7,9 C 7,9 C 6,5 C 94 % 1018 hPa 0,0 l/m 3,3 m/s (2 Bft) SW22.5 235 0 min 2,32 klux 7,0 C 4,1 C
09.11.2008 09:40 7,9 C 7,9 C 6,6 C 94 % 1018 hPa 0,0 l/m 3,2 m/s (2 Bft) SW22.5 225 0 min 3,95 klux 7,0 C 4,4 C
09.11.2008 09:45 7,9 C 7,9 C 6,7 C 94 % 1018 hPa 0,0 l/m 4,0 m/s (3 Bft) W-SW22.5 245 0 min 5,88 klux 7,0 C 2,9 C
09.11.2008 09:50 8,0 C 8,0 C 6,7 C 94 % 1018 hPa 0,0 l/m 2,6 m/s (2 Bft) W-SW22.5 240 0 min 7,13 klux 7,1 C 5,8 C
09.11.2008 09:55 8,1 C 8,1 C 6,9 C 94 % 1018 hPa 0,0 l/m 3,3 m/s (2 Bft) SW67.5 225 0 min 7,13 klux 7,2 C 4,3 C
09.11.2008 10:01 8,2 C 8,1 C 6,9 C 94 % 1018 hPa 0,0 l/m 5,7 m/s (4 Bft) W-SW22.5 255 0 min 6,49 klux 7,3 C 0,8 C
09.11.2008 10:06 8,3 C 8,2 C 6,9 C 94 % 1018 hPa 0,0 l/m 2,0 m/s (2 Bft) W-SW22.5 245 0 min 3,40 klux 7,4 C 7,7 C
09.11.2008 10:10 8,3 C 8,2 C 7,0 C 94 % 1018 hPa 0,0 l/m 4,9 m/s (3 Bft) SW67.5 215 0 min 4,12 klux 7,4 C 1,9 C
09.11.2008 10:15 8,3 C 8,3 C 7,0 C 94 % 1018 hPa 0,4 l/m 4,9 m/s (3 Bft) S-SW45 210 0 min 3,70 klux 7,4 C 2,0 C
09.11.2008 10:20 8,4 C 8,3 C 7,2 C 94 % 1018 hPa 0,0 l/m 2,5 m/s (2 Bft) S-SW67.5 210 0 min 7,93 klux 7,5 C 6,4 C
09.11.2008 10:25 8,5 C 8,4 C 7,2 C 94 % 1018 hPa 0,0 l/m 4,1 m/s (3 Bft) S-SW67.5 200 0 min 9,1 klux 7,6 C 3,4 C
09.11.2008 10:30 8,6 C 8,5 C 7,3 C 94 % 1018 hPa 0,0 l/m 4,8 m/s (3 Bft) SW67.5 235 0 min 9,9 klux 7,7 C 2,6 C
09.11.2008 10:35 8,7 C 8,5 C 7,3 C 95 % 1018 hPa 0,0 l/m 2,2 m/s (2 Bft) SW67.5 215 0 min 6,56 klux 7,9 C 7,6 C
09.11.2008 10:40 8,6 C 8,6 C 7,3 C 94 % 1018 hPa 0,0 l/m 2,3 m/s (2 Bft) S-SW45 195 0 min 3,30 klux 7,7 C 7,2 C
09.11.2008 10:45 8,6 C 8,6 C 7,3 C 94 % 1018 hPa 0,0 l/m 3,2 m/s (2 Bft) S67.5 180 0 min 3,95 klux 7,7 C 5,2 C
09.11.2008 10:51 8,6 C 8,6 C 7,3 C 94 % 1018 hPa 0,0 l/m 2,7 m/s (2 Bft) SW45 215 0 min 4,44 klux 7,7 C 6,2 C
09.11.2008 10:56 8,7 C 8,7 C 7,4 C 95 % 1018 hPa 0,4 l/m 2,9 m/s (2 Bft) S45 190 0 min 5,70 klux 7,9 C 5,9 C
09.11.2008 11:00 8,7 C 8,7 C 7,5 C 95 % 1018 hPa 0,0 l/m 2,6 m/s (2 Bft) S45 190 0 min 6,52 klux 7,9 C 6,5 C
09.11.2008 11:06 8,7 C 8,7 C 7,5 C 95 % 1018 hPa 0,0 l/m 4,0 m/s (3 Bft) SW67.5 225 0 min 6,00 klux 7,9 C 3,9 C
09.11.2008 11:11 8,8 C 8,7 C 7,4 C 95 % 1018 hPa 0,0 l/m 1,5 m/s (1 Bft) SW45 225 0 min 4,81 klux 8,0 C 8,8 C
09.11.2008 11:16 8,8 C 8,7 C 7,5 C 95 % 1018 hPa 0,0 l/m 2,1 m/s (2 Bft) SW45 230 0 min 3,94 klux 8,0 C 8,0 C
09.11.2008 11:21 8,8 C 8,8 C 7,5 C 95 % 1018 hPa 0,0 l/m 2,6 m/s (2 Bft) SW45 220 0 min 3,65 klux 8,0 C 6,6 C
09.11.2008 11:26 8,8 C 8,8 C 7,5 C 95 % 1018 hPa 0,0 l/m 2,0 m/s (2 Bft) SW 225 0 min 3,85 klux 8,0 C 8,2 C
09.11.2008 11:31 8,8 C 8,8 C 7,6 C 95 % 1018 hPa 0,0 l/m 2,3 m/s (2 Bft) W-SW22.5 240 0 min 5,52 klux 8,0 C 7,4 C
09.11.2008 11:36 8,8 C 8,8 C 7,6 C 95 % 1018 hPa 0,4 l/m 3,6 m/s (3 Bft) SW45 230 0 min 5,22 klux 8,0 C 4,6 C
09.11.2008 11:41 8,9 C 8,9 C 7,7 C 96 % 1018 hPa 0,0 l/m 3,3 m/s (2 Bft) SW22.5 235 0 min 4,42 klux 8,3 C 5,4 C
09.11.2008 11:46 8,9 C 8,9 C 7,8 C 96 % 1018 hPa 0,0 l/m 1,3 m/s (1 Bft) SW45 230 0 min 3,89 klux 8,3 C 8,9 C
09.11.2008 11:51 9,0 C 8,9 C 7,8 C 96 % 1018 hPa 0,0 l/m 3,1 m/s (2 Bft) W-SW22.5 250 0 min 4,22 klux 8,4 C 5,9 C
09.11.2008 11:56 9,0 C 9,0 C 7,8 C 96 % 1018 hPa 0,4 l/m 2,3 m/s (2 Bft) W-SW22.5 250 0 min 4,83 klux 8,4 C 7,7 C
09.11.2008 12:00 9,0 C 9,0 C 7,8 C 96 % 1019 hPa 0,0 l/m 2,9 m/s (2 Bft) W22.5 265 0 min 3,39 klux 8,4 C 6,2 C
09.11.2008 12:05 9,0 C 9,0 C 7,9 C 96 % 1019 hPa 0,4 l/m 4,1 m/s (3 Bft) W22.5 265 0 min 2,63 klux 8,4 C 4,0 C
09.11.2008 12:10 9,0 C 9,0 C 7,8 C 97 % 1019 hPa 0,4 l/m 3,5 m/s (3 Bft) W-SW22.5 255 0 min 2,91 klux 8,5 C 5,1 C
09.11.2008 12:15 9,1 C 9,0 C 7,9 C 97 % 1019 hPa 0,4 l/m 3,1 m/s (2 Bft) W-SW22.5 245 0 min 4,36 klux 8,6 C 6,0 C
09.11.2008 12:20 9,1 C 9,1 C 7,9 C 97 % 1019 hPa 0,0 l/m 2,9 m/s (2 Bft) W-SW45 250 0 min 5,26 klux 8,6 C 6,4 C
09.11.2008 12:25 9,1 C 9,1 C 8,0 C 97 % 1019 hPa 0,0 l/m 1,7 m/s (2 Bft) SW22.5 230 0 min 6,64 klux 8,6 C 9,1 C
09.11.2008 12:30 9,2 C 9,2 C 8,0 C 97 % 1019 hPa 0,0 l/m 2,6 m/s (2 Bft) W-SW22.5 240 0 min 6,86 klux 8,7 C 7,0 C
09.11.2008 12:35 9,3 C 9,2 C 8,1 C 97 % 1019 hPa 0,0 l/m 2,4 m/s (2 Bft) W-SW45 240 0 min 9,8 klux 8,8 C 7,7 C
09.11.2008 12:40 9,3 C 9,2 C 8,2 C 96 % 1019 hPa 0,4 l/m 3,7 m/s (3 Bft) W-SW22.5 250 0 min 8,82 klux 8,7 C 5,1 C
09.11.2008 12:45 9,2 C 9,3 C 8,1 C 96 % 1019 hPa 0,0 l/m 4,8 m/s (3 Bft) W45 260 0 min 6,04 klux 8,6 C 3,3 C
09.11.2008 12:50 9,3 C 9,3 C 8,2 C 94 % 1019 hPa 0,0 l/m 5,4 m/s (3 Bft) W45 260 0 min 10,6 klux 8,4 C 2,6 C
09.11.2008 12:55 9,5 C 9,3 C 8,3 C 94 % 1019 hPa 0,0 l/m 5,0 m/s (3 Bft) W-SW45 250 0 min 15,1 klux 8,6 C 3,3 C
09.11.2008 13:00 9,6 C 9,5 C 8,4 C 93 % 1019 hPa 0,0 l/m 3,7 m/s (3 Bft) W-SW45 250 0 min 16,3 klux 8,5 C 5,4 C
09.11.2008 13:05 9,8 C 9,6 C 8,5 C 93 % 1019 hPa 0,4 l/m 2,6 m/s (2 Bft) W-SW22.5 245 0 min 15,6 klux 8,7 C 7,9 C
09.11.2008 13:10 9,8 C 9,6 C 8,4 C 93 % 1019 hPa 0,0 l/m 2,2 m/s (2 Bft) W-SW22.5 250 0 min 9,7 klux 8,7 C 8,7 C
09.11.2008 13:15 9,7 C 9,6 C 8,3 C 93 % 1019 hPa 0,0 l/m 2,2 m/s (2 Bft) W-SW22.5 250 0 min 8,72 klux 8,6 C 8,6 C
09.11.2008 13:20 9,6 C 9,6 C 8,3 C 93 % 1019 hPa 0,0 l/m 2,8 m/s (2 Bft) W-SW22.5 250 0 min 8,21 klux 8,5 C 7,1 C
09.11.2008 13:25 9,5 C 9,7 C 8,4 C 93 % 1019 hPa 0,0 l/m 2,5 m/s (2 Bft) W-SW22.5 245 0 min 9,4 klux 8,4 C 7,7 C
09.11.2008 13:30 9,6 C 9,7 C 8,4 C 93 % 1019 hPa 0,0 l/m 1,9 m/s (2 Bft) W-SW45 245 0 min 10,5 klux 8,5 C 9,2 C
09.11.2008 13:35 9,6 C 9,7 C 8,5 C 93 % 1019 hPa 0,0 l/m 1,5 m/s (1 Bft) W-SW22.5 255 0 min 12,2 klux 8,5 C 9,6 C
09.11.2008 13:40 9,6 C 9,7 C 8,4 C 93 % 1019 hPa 0,0 l/m 2,6 m/s (2 Bft) W45 260 0 min 11,0 klux 8,5 C 7,5 C
09.11.2008 13:45 9,6 C 9,7 C 8,4 C 93 % 1019 hPa 0,0 l/m 2,3 m/s (2 Bft) W45 260 0 min 8,66 klux 8,5 C 8,2 C
09.11.2008 13:50 9,5 C 9,7 C 8,2 C 91 % 1019 hPa 0,0 l/m 5,4 m/s (3 Bft) W45 260 0 min 8,95 klux 8,1 C 2,8 C
09.11.2008 13:55 9,4 C 9,7 C 8,2 C 90 % 1019 hPa 0,0 l/m 6,1 m/s (4 Bft) W22.5 260 0 min 5,47 klux 7,8 C 1,9 C
09.11.2008 14:00 9,4 C 9,6 C 8,2 C 90 % 1019 hPa 0,0 l/m 4,3 m/s (3 Bft) W-SW22.5 250 0 min 7,82 klux 7,8 C 4,3 C
09.11.2008 14:05 9,4 C 9,6 C 8,2 C 91 % 1019 hPa 0,4 l/m 3,8 m/s (3 Bft) W45 265 0 min 8,69 klux 8,0 C 4,9 C
09.11.2008 14:10 9,2 C 9,5 C 8,1 C 90 % 1019 hPa 0,0 l/m 4,9 m/s (3 Bft) W-SW22.5 255 0 min 4,40 klux 7,6 C 3,1 C
09.11.2008 14:15 9,2 C 9,5 C 8,0 C 90 % 1019 hPa 0,0 l/m 5,3 m/s (3 Bft) W45 260 0 min 5,03 klux 7,6 C 2,6 C
09.11.2008 14:20 9,1 C 9,5 C 8,0 C 90 % 1019 hPa 0,0 l/m 5,7 m/s (4 Bft) W-SW45 245 0 min 4,47 klux 7,5 C 1,9 C
09.11.2008 14:25 9,2 C 9,4 C 8,1 C 90 % 1019 hPa 0,0 l/m 2,1 m/s (2 Bft) W-SW22.5 255 0 min 11,6 klux 7,6 C 8,4 C
09.11.2008 14:30 9,2 C 9,4 C 8,1 C 90 % 1019 hPa 0,0 l/m 2,6 m/s (2 Bft) W-SW22.5 250 0 min 11,3 klux 7,6 C 7,2 C
09.11.2008 14:35 9,1 C 9,4 C 8,1 C 90 % 1019 hPa 0,0 l/m 2,0 m/s (2 Bft) SW22.5 235 0 min 5,91 klux 7,5 C 8,6 C
09.11.2008 14:40 9,1 C 9,4 C 8,0 C 91 % 1019 hPa 0,0 l/m 3,1 m/s (2 Bft) W-SW45 240 0 min 6,39 klux 7,7 C 6,0 C
09.11.2008 14:45 9,0 C 9,3 C 8,0 C 91 % 1019 hPa 0,0 l/m 3,4 m/s (3 Bft) W-SW22.5 240 0 min 4,92 klux 7,6 C 5,2 C
09.11.2008 14:50 9,0 C 9,3 C 8,0 C 91 % 1019 hPa 0,0 l/m 2,0 m/s (2 Bft) SW22.5 235 0 min 3,43 klux 7,6 C 8,5 C
09.11.2008 14:55 8,9 C 9,2 C 8,0 C 92 % 1019 hPa 0,0 l/m 1,1 m/s (1 Bft) W-SW22.5 240 0 min 5,88 klux 7,7 C 8,9 C
09.11.2008 15:00 8,9 C 9,2 C 8,0 C 92 % 1019 hPa 0,0 l/m 1,4 m/s (1 Bft) W-SW22.5 240 0 min 5,86 klux 7,7 C 8,9 C
09.11.2008 15:05 8,9 C 9,2 C 8,0 C 92 % 1019 hPa 0,0 l/m 1,9 m/s (2 Bft) SW22.5 235 0 min 5,71 klux 7,7 C 8,4 C
09.11.2008 15:10 8,9 C 9,1 C 8,0 C 92 % 1019 hPa 0,0 l/m 1,7 m/s (2 Bft) SW22.5 230 0 min 4,93 klux 7,7 C 8,9 C
09.11.2008 15:15 8,8 C 9,1 C 8,0 C 92 % 1019 hPa 0,0 l/m 2,1 m/s (2 Bft) W-SW45 240 0 min 6,25 klux 7,6 C 8,0 C
09.11.2008 15:20 8,9 C 9,2 C 8,0 C 92 % 1019 hPa 0,0 l/m 2,3 m/s (2 Bft) SW22.5 230 0 min 8,00 klux 7,7 C 7,5 C
09.11.2008 15:25 8,9 C 9,2 C 8,0 C 92 % 1019 hPa 0,0 l/m 0,6 m/s (1 Bft) SW22.5 215 0 min 8,50 klux 7,7 C 8,9 C
09.11.2008 15:30 8,9 C 9,2 C 8,0 C 92 % 1019 hPa 0,0 l/m 3,2 m/s (2 Bft) S-SW45 205 0 min 10,3 klux 7,7 C 5,5 C
09.11.2008 15:35 9,0 C 9,3 C 7,9 C 92 % 1019 hPa 0,0 l/m 2,8 m/s (2 Bft) SW45 215 0 min 9,8 klux 7,8 C 6,4 C
09.11.2008 15:40 9,0 C 9,3 C 7,8 C 91 % 1019 hPa 0,0 l/m 4,2 m/s (3 Bft) S-SW45 205 0 min 8,36 klux 7,6 C 3,9 C
09.11.2008 15:45 8,9 C 9,3 C 7,7 C 91 % 1019 hPa 0,0 l/m 2,6 m/s (2 Bft) S-SW45 200 0 min 6,86 klux 7,5 C 6,8 C
09.11.2008 15:50 8,8 C 9,2 C 7,7 C 91 % 1019 hPa 0,0 l/m 2,9 m/s (2 Bft) S67.5 180 0 min 5,27 klux 7,4 C 6,0 C
09.11.2008 15:55 8,7 C 9,2 C 7,7 C 92 % 1020 hPa 0,0 l/m 2,3 m/s (2 Bft) S-SW45 195 0 min 5,80 klux 7,5 C 7,3 C
09.11.2008 16:00 8,7 C 9,2 C 7,7 C 92 % 1020 hPa 0,0 l/m 3,1 m/s (2 Bft) S-SW67.5 205 0 min 5,85 klux 7,5 C 5,6 C
09.11.2008 16:05 8,7 C 9,1 C 7,6 C 92 % 1020 hPa 0,0 l/m 2,9 m/s (2 Bft) S-SW67.5 195 0 min 5,25 klux 7,5 C 5,9 C
09.11.2008 16:10 8,6 C 9,1 C 7,5 C 92 % 1020 hPa 0,0 l/m 2,3 m/s (2 Bft) S-SW45 200 0 min 4,83 klux 7,4 C 7,3 C
09.11.2008 16:15 8,6 C 9,0 C 7,4 C 92 % 1020 hPa 0,0 l/m 3,5 m/s (3 Bft) SW45 220 0 min 4,07 klux 7,4 C 4,5 C
09.11.2008 16:20 8,4 C 8,9 C 7,3 C 91 % 1020 hPa 0,0 l/m 2,7 m/s (2 Bft) SW45 215 0 min 2,87 klux 7,0 C 6,1 C
09.11.2008 16:25 8,3 C 8,8 C 7,2 C 91 % 1020 hPa 0,0 l/m 4,4 m/s (3 Bft) SW45 225 0 min 2,63 klux 6,9 C 2,6 C
09.11.2008 16:30 8,3 C 8,8 C 7,1 C 91 % 1020 hPa 0,0 l/m 3,4 m/s (3 Bft) W-SW22.5 245 0 min 1,98 klux 6,9 C 4,3 C
09.11.2008 16:35 8,2 C 8,6 C 7,0 C 91 % 1020 hPa 0,0 l/m 2,8 m/s (2 Bft) SW45 225 5 min 1,49 klux 6,8 C 5,5 C
09.11.2008 16:40 8,0 C 8,5 C 7,0 C 92 % 1020 hPa 0,0 l/m 2,9 m/s (2 Bft) SW45 235 0 min 1,10 klux 6,8 C 5,1 C
09.11.2008 16:46 8,0 C 8,4 C 6,9 C 92 % 1020 hPa 0,0 l/m 2,5 m/s (2 Bft) SW45 230 0 min 526 lux 6,8 C 6,0 C
09.11.2008 16:51 7,8 C 8,3 C 6,8 C 92 % 1020 hPa 0,0 l/m 4,7 m/s (3 Bft) SW45 225 0 min 418 lux 6,6 C 1,6 C
09.11.2008 16:56 7,8 C 8,3 C 6,8 C 92 % 1020 hPa 0,0 l/m 4,7 m/s (3 Bft) SW67.5 235 0 min 265 lux 6,6 C 1,7 C
09.11.2008 17:01 7,8 C 8,3 C 6,7 C 92 % 1020 hPa 0,0 l/m 3,2 m/s (2 Bft) W-SW22.5 250 0 min 209 lux 6,6 C 4,3 C
09.11.2008 17:06 7,7 C 8,1 C 6,6 C 92 % 1020 hPa 0,0 l/m 4,3 m/s (3 Bft) W-SW22.5 245 0 min 115 lux 6,5 C 2,2 C
09.11.2008 17:11 7,6 C 8,1 C 6,6 C 92 % 1020 hPa 0,0 l/m 3,6 m/s (3 Bft) W-SW22.5 255 0 min 52 lux 6,4 C 3,2 C
09.11.2008 17:16 7,6 C 8,0 C 6,6 C 92 % 1020 hPa 0,0 l/m 2,1 m/s (2 Bft) W-SW45 250 0 min 25 lux 6,4 C 6,6 C
09.11.2008 17:21 7,5 C 7,9 C 6,5 C 92 % 1020 hPa 0,0 l/m 2,2 m/s (2 Bft) W-SW67.5 240 0 min 12 lux 6,3 C 6,4 C
09.11.2008 17:26 7,5 C 7,9 C 6,5 C 92 % 1020 hPa 0,0 l/m 2,3 m/s (2 Bft) W-SW22.5 250 0 min 6 lux 6,3 C 6,1 C
09.11.2008 17:31 7,4 C 7,8 C 6,4 C 93 % 1020 hPa 0,0 l/m 2,7 m/s (2 Bft) W-NW22.5 285 0 min 1 lux 6,3 C 5,0 C
09.11.2008 17:35 7,4 C 7,7 C 6,4 C 93 % 1020 hPa 0,0 l/m 3,1 m/s (2 Bft) W45 270 0 min 0 lux 6,3 C 4,0 C
09.11.2008 17:40 7,3 C 7,6 C 6,4 C 93 % 1020 hPa 0,0 l/m 3,1 m/s (2 Bft) W45 270 0 min 0 lux 6,2 C 3,9 C
09.11.2008 17:45 7,3 C 7,6 C 6,4 C 93 % 1020 hPa 0,0 l/m 2,6 m/s (2 Bft) W-SW22.5 255 0 min 0 lux 6,2 C 5,1 C
09.11.2008 17:50 7,3 C 7,6 C 6,4 C 93 % 1020 hPa 0,0 l/m 2,9 m/s (2 Bft) W-SW45 255 0 min 0 lux 6,2 C 4,3 C
09.11.2008 17:55 7,4 C 7,6 C 6,4 C 93 % 1020 hPa 0,0 l/m 3,0 m/s (2 Bft) W-SW22.5 250 0 min 0 lux 6,3 C 4,2 C
09.11.2008 18:00 7,4 C 7,6 C 6,3 C 92 % 1020 hPa 0,0 l/m 2,9 m/s (2 Bft) W-SW22.5 255 0 min 0 lux 6,2 C 4,4 C
09.11.2008 18:05 7,3 C 7,5 C 6,3 C 92 % 1020 hPa 0,0 l/m 1,9 m/s (2 Bft) W-SW 240 0 min 0 lux 6,1 C 6,8 C
09.11.2008 18:11 7,2 C 7,5 C 6,2 C 92 % 1020 hPa 0,0 l/m 2,1 m/s (2 Bft) SW22.5 230 0 min 0 lux 6,0 C 6,1 C
09.11.2008 18:16 7,2 C 7,5 C 6,2 C 93 % 1020 hPa 0,0 l/m 3,4 m/s (2 Bft) SW22.5 225 0 min 0 lux 6,1 C 3,2 C
09.11.2008 18:21 7,3 C 7,5 C 6,3 C 93 % 1020 hPa 0,0 l/m 3,1 m/s (2 Bft) W45 260 0 min 0 lux 6,2 C 4,0 C
09.11.2008 18:25 7,3 C 7,5 C 6,3 C 93 % 1020 hPa 0,0 l/m 3,2 m/s (2 Bft) W-SW45 255 0 min 0 lux 6,2 C 3,7 C
09.11.2008 18:30 7,3 C 7,6 C 6,3 C 93 % 1020 hPa 0,0 l/m 6,0 m/s (4 Bft) W-SW45 240 0 min 0 lux 6,2 C -0,8 C
09.11.2008 18:35 7,5 C 7,7 C 6,3 C 92 % 1020 hPa 0,0 l/m 4,0 m/s (3 Bft) SW45 230 0 min 0 lux 6,3 C 2,3 C
09.11.2008 18:40 7,6 C 7,7 C 6,3 C 91 % 1020 hPa 0,0 l/m 5,3 m/s (3 Bft) W-SW45 240 0 min 0 lux 6,2 C 0,5 C
09.11.2008 18:45 7,5 C 7,7 C 6,2 C 91 % 1020 hPa 0,0 l/m 4,0 m/s (3 Bft) W-SW45 240 0 min 0 lux 6,1 C 2,3 C
09.11.2008 18:50 7,4 C 7,7 C 6,2 C 91 % 1020 hPa 0,0 l/m 3,9 m/s (3 Bft) SW22.5 235 0 min 0 lux 6,0 C 2,4 C
09.11.2008 18:55 7,4 C 7,7 C 6,2 C 92 % 1020 hPa 0,0 l/m 3,9 m/s (3 Bft) SW22.5 235 0 min 0 lux 6,2 C 2,5 C
09.11.2008 19:01 7,4 C 7,7 C 6,2 C 92 % 1020 hPa 0,0 l/m 3,3 m/s (2 Bft) SW67.5 235 0 min 0 lux 6,2 C 3,5 C
09.11.2008 19:06 7,4 C 7,7 C 6,1 C 92 % 1020 hPa 0,0 l/m 4,7 m/s (3 Bft) SW45 230 0 min 0 lux 6,2 C 1,1 C
09.11.2008 19:11 7,3 C 7,7 C 6,1 C 92 % 1020 hPa 0,0 l/m 3,8 m/s (3 Bft) S-SW67.5 200 0 min 0 lux 6,1 C 2,5 C
09.11.2008 19:15 7,2 C 7,7 C 6,1 C 92 % 1020 hPa 0,0 l/m 5,9 m/s (4 Bft) SW45 225 0 min 0 lux 6,0 C -0,8 C
09.11.2008 19:20 7,3 C 7,6 C 6,0 C 92 % 1020 hPa 0,0 l/m 4,3 m/s (3 Bft) SW67.5 230 0 min 0 lux 6,1 C 1,7 C
09.11.2008 19:25 7,3 C 7,6 C 6,0 C 92 % 1020 hPa 0,0 l/m 5,2 m/s (3 Bft) SW67.5 230 0 min 0 lux 6,1 C 0,2 C
09.11.2008 19:30 7,3 C 7,6 C 6,0 C 92 % 1020 hPa 0,0 l/m 4,7 m/s (3 Bft) SW67.5 215 0 min 0 lux 6,1 C 1,0 C
09.11.2008 19:35 7,1 C 7,5 C 5,8 C 92 % 1020 hPa 0,0 l/m 5,3 m/s (3 Bft) SW45 225 0 min 0 lux 5,9 C -0,0 C
09.11.2008 19:40 7,0 C 7,5 C 5,7 C 93 % 1020 hPa 0,0 l/m 3,0 m/s (2 Bft) SW45 235 0 min 0 lux 5,9 C 3,8 C
09.11.2008 19:45 7,0 C 7,4 C 5,8 C 93 % 1020 hPa 0,0 l/m 3,3 m/s (2 Bft) S-SW67.5 210 0 min 0 lux 5,9 C 3,2 C
09.11.2008 19:51 6,9 C 7,4 C 5,8 C 93 % 1020 hPa 0,0 l/m 4,7 m/s (3 Bft) SW45 225 0 min 0 lux 5,8 C 0,5 C
09.11.2008 19:56 6,9 C 7,3 C 5,7 C 93 % 1020 hPa 0,0 l/m 3,6 m/s (3 Bft) SW22.5 235 0 min 0 lux 5,8 C 2,4 C
09.11.2008 20:00 6,8 C 7,3 C 5,7 C 94 % 1020 hPa 0,0 l/m 3,8 m/s (3 Bft) W-SW45 240 0 min 0 lux 5,9 C 2,0 C
09.11.2008 20:05 6,8 C 7,2 C 5,6 C 94 % 1020 hPa 0,0 l/m 3,9 m/s (3 Bft) SW67.5 230 0 min 0 lux 5,9 C 1,7 C
09.11.2008 20:10 6,7 C 7,2 C 5,5 C 93 % 1020 hPa 0,0 l/m 3,3 m/s (2 Bft) SW22.5 235 0 min 0 lux 5,6 C 2,7 C
09.11.2008 20:15 6,5 C 7,1 C 5,4 C 94 % 1020 hPa 0,0 l/m 3,6 m/s (3 Bft) SW45 215 0 min 0 lux 5,6 C 2,0 C
09.11.2008 20:20 6,5 C 7,0 C 5,4 C 94 % 1020 hPa 0,0 l/m 2,0 m/s (2 Bft) SW22.5 235 0 min 0 lux 5,6 C 5,7 C
09.11.2008 20:25 6,4 C 6,8 C 5,4 C 95 % 1020 hPa 0,0 l/m 1,8 m/s (2 Bft) W-SW22.5 240 0 min 0 lux 5,7 C 6,4 C
09.11.2008 20:30 6,3 C 6,8 C 5,2 C 94 % 1020 hPa 0,0 l/m 1,4 m/s (1 Bft) SW22.5 230 0 min 0 lux 5,4 C 6,3 C
09.11.2008 20:35 6,2 C 6,7 C 5,2 C 95 % 1020 hPa 0,0 l/m 3,1 m/s (2 Bft) SW22.5 220 0 min 0 lux 5,5 C 2,7 C
09.11.2008 20:41 6,2 C 6,7 C 5,3 C 95 % 1020 hPa 0,0 l/m 1,9 m/s (2 Bft) SW22.5 220 0 min 0 lux 5,5 C 5,7 C
09.11.2008 20:46 6,1 C 6,7 C 5,3 C 95 % 1020 hPa 0,0 l/m 2,1 m/s (2 Bft) S-SW45 210 0 min 0 lux 5,4 C 5,2 C
09.11.2008 20:50 6,0 C 6,6 C 5,2 C 95 % 1020 hPa 0,0 l/m 1,2 m/s (1 Bft) SW22.5 220 0 min 0 lux 5,3 C 6,0 C
09.11.2008 20:55 6,1 C 6,7 C 5,4 C 95 % 1020 hPa 0,0 l/m 2,3 m/s (2 Bft) S-SW45 195 0 min 0 lux 5,4 C 4,5 C
09.11.2008 21:00 6,2 C 6,7 C 5,4 C 95 % 1020 hPa 0,0 l/m 0,1 m/s (0 Bft) SW 225 0 min 0 lux 5,5 C 6,2 C
09.11.2008 21:05 6,3 C 6,6 C 5,2 C 95 % 1020 hPa 0,0 l/m 0,3 m/s (0 Bft) SW 220 0 min 0 lux 5,6 C 6,3 C
09.11.2008 21:10 6,0 C 6,6 C 5,1 C 95 % 1020 hPa 0,0 l/m 1,3 m/s (1 Bft) S-SO45 150 0 min 0 lux 5,3 C 6,0 C
09.11.2008 21:15 6,0 C 6,6 C 5,4 C 95 % 1020 hPa 0,0 l/m 0,3 m/s (1 Bft) SO67.5 130 0 min 0 lux 5,3 C 6,0 C
09.11.2008 21:20 6,2 C 6,7 C 5,5 C 95 % 1020 hPa 0,0 l/m 0,2 m/s (0 Bft) S45 190 0 min 0 lux 5,5 C 6,2 C
09.11.2008 21:26 6,3 C 6,7 C 5,6 C 95 % 1020 hPa 0,0 l/m 1,9 m/s (2 Bft) SW22.5 230 0 min 0 lux 5,6 C 6,0 C
09.11.2008 21:31 6,5 C 6,8 C 5,6 C 95 % 1020 hPa 0,0 l/m 2,1 m/s (2 Bft) W-SW45 240 0 min 0 lux 5,8 C 5,5 C
09.11.2008 21:36 6,7 C 6,8 C 5,6 C 95 % 1020 hPa 0,0 l/m 1,9 m/s (2 Bft) W-SW45 240 0 min 0 lux 6,0 C 6,3 C
09.11.2008 21:40 6,7 C 6,9 C 5,7 C 95 % 1020 hPa 0,0 l/m 0,2 m/s (0 Bft) SW22.5 235 0 min 0 lux 6,0 C 6,7 C
09.11.2008 21:45 6,7 C 6,9 C 5,7 C 94 % 1020 hPa 0,0 l/m 2,2 m/s (2 Bft) W-SW22.5 240 0 min 0 lux 5,8 C 5,5 C
09.11.2008 21:50 6,8 C 7,0 C 5,8 C 94 % 1020 hPa 0,0 l/m 2,1 m/s (2 Bft) W-SW22.5 240 0 min 0 lux 5,9 C 6,0 C
09.11.2008 21:55 6,8 C 7,1 C 5,8 C 94 % 1020 hPa 0,0 l/m 1,8 m/s (2 Bft) SW22.5 235 0 min 0 lux 5,9 C 6,8 C
09.11.2008 22:01 6,8 C 7,1 C 5,8 C 94 % 1020 hPa 0,0 l/m 1,3 m/s (1 Bft) SW22.5 235 0 min 0 lux 5,9 C 6,8 C
09.11.2008 22:06 7,0 C 7,2 C 5,9 C 94 % 1020 hPa 0,0 l/m 0,0 m/s (0 Bft) S-SO67.5 155 0 min 0 lux 6,1 C 7,0 C
09.11.2008 22:11 7,0 C 7,2 C 6,0 C 94 % 1020 hPa 0,0 l/m 2,4 m/s (2 Bft) SO45 135 0 min 0 lux 6,1 C 5,1 C
09.11.2008 22:16 7,0 C 7,2 C 6,1 C 94 % 1020 hPa 0,0 l/m 3,2 m/s (2 Bft) SO45 140 0 min 0 lux 6,1 C 3,3 C
09.11.2008 22:21 7,2 C 7,3 C 6,1 C 94 % 1020 hPa 0,0 l/m 2,1 m/s (2 Bft) SO45 135 0 min 0 lux 6,3 C 6,2 C
09.11.2008 22:26 7,2 C 7,3 C 6,2 C 95 % 1020 hPa 0,0 l/m 1,9 m/s (2 Bft) SO67.5 145 0 min 0 lux 6,5 C 6,9 C
09.11.2008 22:31 7,2 C 7,4 C 6,2 C 95 % 1020 hPa 0,0 l/m 0,2 m/s (0 Bft) S45 180 0 min 0 lux 6,5 C 7,2 C
09.11.2008 22:35 7,3 C 7,4 C 6,3 C 95 % 1019 hPa 0,4 l/m 1,5 m/s (1 Bft) SO67.5 125 0 min 0 lux 6,6 C 7,3 C
09.11.2008 22:40 7,3 C 7,5 C 6,3 C 95 % 1019 hPa 0,0 l/m 1,9 m/s (2 Bft) SO22.5 140 0 min 0 lux 6,6 C 7,0 C
09.11.2008 22:45 7,4 C 7,5 C 6,5 C 95 % 1019 hPa 0,0 l/m 3,5 m/s (3 Bft) SO22.5 130 0 min 0 lux 6,7 C 3,2 C
09.11.2008 22:50 7,5 C 7,6 C 6,5 C 96 % 1019 hPa 0,0 l/m 3,5 m/s (3 Bft) SO22.5 130 0 min 0 lux 6,9 C 3,4 C
09.11.2008 22:55 7,6 C 7,7 C 6,5 C 96 % 1019 hPa 0,0 l/m 2,5 m/s (2 Bft) S-SO45 150 0 min 0 lux 7,0 C 5,6 C
09.11.2008 23:00 7,7 C 7,8 C 6,7 C 96 % 1019 hPa 0,0 l/m 2,2 m/s (2 Bft) SO22.5 140 0 min 0 lux 7,1 C 6,5 C
09.11.2008 23:05 7,8 C 7,9 C 6,8 C 96 % 1019 hPa 0,0 l/m 4,5 m/s (3 Bft) SO22.5 130 0 min 0 lux 7,2 C 1,9 C
09.11.2008 23:10 8,0 C 8,1 C 6,9 C 96 % 1019 hPa 0,0 l/m 4,1 m/s (3 Bft) S-SO45 150 0 min 0 lux 7,4 C 2,8 C
09.11.2008 23:15 8,1 C 8,1 C 7,0 C 96 % 1019 hPa 0,0 l/m 5,2 m/s (3 Bft) SO45 145 0 min 0 lux 7,5 C 1,3 C
09.11.2008 23:20 8,1 C 8,3 C 7,0 C 96 % 1019 hPa 0,0 l/m 3,8 m/s (3 Bft) SO45 140 0 min 0 lux 7,5 C 3,4 C
09.11.2008 23:25 8,2 C 8,4 C 7,1 C 96 % 1019 hPa 0,0 l/m 3,9 m/s (3 Bft) SO22.5 135 0 min 0 lux 7,6 C 3,5 C
09.11.2008 23:30 8,3 C 8,5 C 7,0 C 96 % 1019 hPa 0,0 l/m 3,1 m/s (2 Bft) SO22.5 135 0 min 0 lux 7,7 C 4,9 C
09.11.2008 23:35 8,3 C 8,5 C 7,2 C 96 % 1018 hPa 0,0 l/m 3,3 m/s (2 Bft) SO67.5 145 0 min 0 lux 7,7 C 4,7 C
09.11.2008 23:40 8,4 C 8,6 C 7,2 C 96 % 1018 hPa 0,0 l/m 2,6 m/s (2 Bft) SO67.5 145 0 min 0 lux 7,8 C 6,3 C
09.11.2008 23:45 8,5 C 8,6 C 7,3 C 96 % 1019 hPa 0,0 l/m 2,4 m/s (2 Bft) SO22.5 140 0 min 0 lux 7,9 C 6,9 C
09.11.2008 23:50 8,5 C 8,6 C 7,5 C 96 % 1018 hPa 0,0 l/m 3,8 m/s (3 Bft) S-SO45 165 0 min 0 lux 7,9 C 3,9 C
09.11.2008 23:55 8,6 C 8,8 C 7,5 C 96 % 1018 hPa 0,0 l/m 3,2 m/s (2 Bft) S-SO45 150 0 min 0 lux 8,0 C 5,2 C
_ Min-Zeit 02:15 02:35 03:00 07:50 05:00 - 00:01 - - - - 02:15 06:36
Minimum _ 0,3 C 0,7 C 0,5 C 89 % 1017 hPa - 0,0 m/s (0 Bft) - - - - -0,4 C -1,7 C
_ Max-Zeit 13:05 13:25 13:05 05:26 00:01 08:05 08:10 - - 16:35 13:00 12:35 13:35
Maximum _ 9,8 C 9,7 C 8,5 C 98 % 1020 hPa 0,4 l/m 6,7 m/s
SW (4 Bft)
- - 5 min 16,3 klux 8,8 C 9,6 C
Durchschnitt _ 6,1 C 6,3 C 5,3 C 94 % 1019 hPa #4,7 l/m 2,4 m/s (2 Bft) SW - #5 min. 2,03 klux 5,2 C 3,7 C